Tracking 29033 objects as of 22-Jun-2024
HD Live streaming from Space Station
objects crossing your sky now

GEESAT 2-02

Track GEESAT 2-02 now!
10-day predictions


NORAD ID: 58906
Int'l Code: 2024-023B
Perigee: 603.0 km
Apogee: 611.5 km
Inclination: 50.0 °
Period: 96.7 minutes
Semi major axis: 6978 km
RCS: Unknown
Launch date: February 2, 2024
Source: People's Republic of China (PRC)
Launch site: Xichang Space Center, China (XSC)
Your satellite tracking list
Your tracking list is empty




NASA's NSSDC Master Catalog

Two Line Element Set (TLE):
1 58906U 24023B   24174.17930009  .00003535  00000-0  39355-3 0  9990
2 58906  49.9976 142.1865 0006103  42.7300 317.4114 14.89295029 20885
Source of the keplerian elements: AFSPC